�������l�o���
Date,Time,MP-1(��Sv/h),MP-2(��Sv/h),MP-3(��Sv/h),MP-4(��Sv/h),MP-5(��Sv/h),MP-6(��Sv/h),MP-7(��Sv/h),MP-8(��Sv/h),����,����(m/s),���J
2018/10/25,00:00,0.776,1.168,0.826,1.466,1.066,0.457,0.810,0.765,�k�k��,7.9,��
2018/10/25,00:10,0.776,1.170,0.827,1.464,1.066,0.460,0.808,0.765,�k�k��,7.4,��
2018/10/25,00:20,0.776,1.169,0.827,1.465,1.066,0.458,0.808,0.765,�k�k��,7.8,��
2018/10/25,00:30,0.777,1.168,0.827,1.468,1.069,0.459,0.808,0.764,�k��,7.3,��
2018/10/25,00:40,0.778,1.168,0.826,1.465,1.067,0.459,0.808,0.765,�k�k��,7.9,��
2018/10/25,00:50,0.777,1.168,0.826,1.463,1.068,0.458,0.809,0.763,�k�k��,7.5,��
2018/10/25,01:00,0.776,1.170,0.827,1.464,1.066,0.459,0.810,0.764,�k�k��,7.6,��
2018/10/25,01:10,0.776,1.167,0.828,1.465,1.066,0.458,0.807,0.764,�k�k��,7.8,��
2018/10/25,01:20,0.774,1.170,0.828,1.464,1.068,0.460,0.809,0.765,�k�k��,7.6,��
2018/10/25,01:30,0.775,1.167,0.827,1.465,1.066,0.460,0.809,0.765,�k�k��,7.7,��
2018/10/25,01:40,0.777,1.170,0.827,1.463,1.067,0.459,0.807,0.763,�k�k��,7.6,��
2018/10/25,01:50,0.777,1.167,0.828,1.468,1.068,0.460,0.808,0.765,�k�k��,7.2,��
2018/10/25,02:00,0.776,1.170,0.827,1.467,1.065,0.460,0.809,0.765,�k�k��,8.8,��
2018/10/25,02:10,0.775,1.169,0.829,1.465,1.065,0.460,0.808,0.765,�k�k��,7.9,��
2018/10/25,02:20,0.775,1.168,0.827,1.464,1.067,0.460,0.808,0.765,�k�k��,8.2,��
2018/10/25,02:30,0.774,1.169,0.827,1.465,1.066,0.460,0.809,0.764,�k�k��,8.4,��
2018/10/25,02:40,0.774,1.166,0.827,1.467,1.066,0.460,0.809,0.764,�k�k��,8.7,��
2018/10/25,02:50,0.777,1.170,0.828,1.466,1.065,0.458,0.810,0.763,�k�k��,7.1,��
2018/10/25,03:00,0.777,1.166,0.827,1.468,1.066,0.459,0.808,0.765,�k�k��,7.7,��
2018/10/25,03:10,0.775,1.168,0.826,1.466,1.067,0.459,0.810,0.764,�k�k��,7.6,��
2018/10/25,03:20,0.777,1.171,0.828,1.466,1.067,0.460,0.809,0.764,�k�k��,7.4,��
2018/10/25,03:30,0.776,1.167,0.828,1.466,1.066,0.459,0.808,0.766,�k��,7.3,��
2018/10/25,03:40,0.776,1.170,0.827,1.465,1.067,0.458,0.808,0.765,�k�k��,7.5,��
2018/10/25,03:50,0.775,1.165,0.826,1.467,1.066,0.458,0.810,0.765,�k�k��,6.8,��
2018/10/25,04:00,0.775,1.169,0.826,1.468,1.064,0.460,0.807,0.764,�k��,6.4,��
2018/10/25,04:10,0.777,1.165,0.828,1.467,1.067,0.459,0.808,0.765,�k�k��,5.6,��
2018/10/25,04:20,0.776,1.168,0.824,1.467,1.067,0.459,0.808,0.765,�k�k��,5.7,��
2018/10/25,04:30,0.776,1.168,0.827,1.468,1.065,0.459,0.808,0.764,�k�k��,5.6,��
2018/10/25,04:40,0.774,1.165,0.826,1.468,1.068,0.459,0.808,0.764,�k�k��,5.4,��
2018/10/25,04:50,0.775,1.168,0.828,1.468,1.065,0.460,0.808,0.765,�k�k��,5.2,��
2018/10/25,05:00,0.776,1.170,0.826,1.467,1.064,0.460,0.808,0.764,�k�k��,5.7,��
2018/10/25,05:10,0.776,1.167,0.828,1.468,1.065,0.460,0.809,0.765,�k�k��,6.4,��
2018/10/25,05:20,0.775,1.169,0.829,1.465,1.066,0.459,0.809,0.765,�k�k��,6.2,��
2018/10/25,05:30,0.776,1.168,0.826,1.470,1.066,0.459,0.808,0.764,�k�k��,6.5,��
2018/10/25,05:40,0.773,1.166,0.830,1.466,1.066,0.459,0.808,0.764,�k�k��,5.9,��
2018/10/25,05:50,0.775,1.168,0.828,1.467,1.067,0.459,0.808,0.767,�k�k��,5.7,��
2018/10/25,06:00,0.773,1.168,0.828,1.468,1.065,0.458,0.808,0.765,�k�k��,4.9,��
2018/10/25,06:10,0.776,1.168,0.827,1.466,1.067,0.457,0.810,0.764,�k�k��,5.1,��
2018/10/25,06:20,0.774,1.165,0.826,1.466,1.063,0.459,0.808,0.765,�k�k��,5.4,��
2018/10/25,06:30,0.775,1.166,0.827,1.467,1.063,0.459,0.808,0.764,�k�k��,5.3,��
2018/10/25,06:40,0.775,1.167,0.826,1.468,1.065,0.458,0.809,0.764,�k�k��,5.7,��
2018/10/25,06:50,0.775,1.166,0.826,1.469,1.067,0.460,0.809,0.763,�k�k��,6.1,��
2018/10/25,07:00,0.775,1.166,0.827,1.469,1.066,0.459,0.809,0.766,�k�k��,5.2,��
2018/10/25,07:10,0.776,1.169,0.829,1.468,1.066,0.459,0.808,0.765,�k�k��,5.5,��
2018/10/25,07:20,0.776,1.169,0.825,1.468,1.067,0.458,0.810,0.767,�k�k��,5.2,��
2018/10/25,07:30,0.775,1.168,0.825,1.465,1.065,0.460,0.809,0.766,�k�k��,3.6,��
2018/10/25,07:40,0.778,1.168,0.824,1.469,1.067,0.459,0.809,0.765,�k�k��,4.1,��
2018/10/25,07:50,0.775,1.171,0.827,1.464,1.066,0.459,0.811,0.765,�k�k��,4.1,��
2018/10/25,08:00,0.776,1.171,0.826,1.467,1.066,0.462,0.810,0.766,�k�k��,3.6,��
2018/10/25,08:10,0.774,1.171,0.826,1.468,1.066,0.460,0.811,0.765,�k�k��,5.0,��
2018/10/25,08:20,0.778,1.166,0.829,1.467,1.070,0.459,0.809,0.763,�k�k��,6.1,��
2018/10/25,08:30,0.778,1.169,0.826,1.466,1.068,0.461,0.809,0.765,�k�k��,6.5,��
2018/10/25,08:40,0.778,1.166,0.828,1.467,1.068,0.460,0.808,0.765,�k,6.1,��
2018/10/25,08:50,0.778,1.166,0.826,1.470,1.069,0.459,0.808,0.766,�k,5.4,��
2018/10/25,09:00,0.778,1.167,0.828,1.469,1.068,0.460,0.809,0.765,�k,5.3,��
2018/10/25,09:10,0.779,1.165,0.831,1.469,1.069,0.459,0.808,0.764,�k,6.0,��
2018/10/25,09:20,0.779,1.169,0.829,1.467,1.068,0.460,0.808,0.765,�k,6.2,��
2018/10/25,09:30,0.778,1.168,0.828,1.469,1.070,0.460,0.809,0.767,�k,4.5,��
2018/10/25,09:40,0.777,1.166,0.827,1.467,1.071,0.459,0.809,0.768,�k�k��,6.4,��
2018/10/25,09:50,0.777,1.167,0.830,1.470,1.067,0.459,0.810,0.766,�k�k��,7.0,��
2018/10/25,10:00,0.777,1.166,0.827,1.468,1.068,0.459,0.809,0.765,�k�k��,7.5,��
2018/10/25,10:10,0.778,1.168,0.826,1.467,1.067,0.458,0.809,0.767,�k�k��,6.6,��
2018/10/25,10:20,0.777,1.169,0.826,1.468,1.069,0.458,0.810,0.766,�k�k��,7.3,��
2018/10/25,10:30,0.778,1.171,0.825,1.471,1.070,0.457,0.810,0.766,�k�k��,7.2,��
2018/10/25,10:40,0.779,1.170,0.827,1.471,1.072,0.459,0.809,0.764,�k�k��,7.8,��
2018/10/25,10:50,0.779,1.170,0.828,1.471,1.072,0.458,0.810,0.765,�k�k��,7.5,��
2018/10/25,11:00,0.780,1.170,0.829,1.470,1.071,0.458,0.810,0.764,�k�k��,8.0,��
2018/10/25,11:10,0.779,1.172,0.829,1.468,1.072,0.457,0.810,0.763,�k�k��,7.2,��
2018/10/25,11:20,0.779,1.172,0.829,1.470,1.074,0.457,0.810,0.766,�k�k��,7.4,��
2018/10/25,11:30,0.780,1.174,0.829,1.470,1.073,0.456,0.810,0.766,�k�k��,8.2,��
2018/10/25,11:40,0.780,1.174,0.829,1.471,1.075,0.456,0.810,0.764,�k�k��,7.9,��
2018/10/25,11:50,0.782,1.173,0.829,1.472,1.074,0.457,0.810,0.767,�k�k��,6.4,��
2018/10/25,12:00,0.781,1.172,0.830,1.472,1.074,0.459,0.812,0.767,�k�k��,7.8,��
2018/10/25,12:10,0.780,1.176,0.827,1.474,1.078,0.460,0.811,0.764,�k�k��,7.3,��
2018/10/25,12:20,0.781,1.176,0.829,1.470,1.074,0.458,0.810,0.765,�k�k��,7.7,��
2018/10/25,12:30,0.781,1.175,0.829,1.471,1.076,0.459,0.810,0.766,�k�k��,7.2,��
2018/10/25,12:40,0.781,1.175,0.829,1.473,1.078,0.460,0.811,0.764,�k�k��,7.0,��
2018/10/25,12:50,0.780,1.173,0.831,1.472,1.076,0.460,0.811,0.764,�k�k��,6.9,��
2018/10/25,13:00,0.783,1.173,0.830,1.470,1.076,0.460,0.811,0.765,�k�k��,6.8,��
2018/10/25,13:10,0.782,1.172,0.830,1.475,1.076,0.461,0.809,0.766,�k�k��,6.9,��
2018/10/25,13:20,0.783,1.174,0.831,1.472,1.079,0.459,0.809,0.764,�k�k��,7.1,��
2018/10/25,13:30,0.783,1.175,0.830,1.475,1.077,0.459,0.810,0.765,�k�k��,7.3,��
2018/10/25,13:40,0.783,1.173,0.829,1.472,1.076,0.458,0.809,0.763,�k�k��,7.0,��
2018/10/25,13:50,0.785,1.174,0.831,1.474,1.078,0.458,0.811,0.764,�k�k��,6.2,��
2018/10/25,14:00,0.783,1.174,0.830,1.474,1.077,0.460,0.812,0.765,�k�k��,6.5,��
2018/10/25,14:10,0.784,1.173,0.831,1.475,1.079,0.459,0.811,0.765,�k�k��,6.6,��
2018/10/25,14:20,0.783,1.176,0.832,1.473,1.079,0.458,0.810,0.766,�k�k��,6.1,��
2018/10/25,14:30,0.782,1.175,0.830,1.473,1.078,0.458,0.810,0.764,�k�k��,5.2,��
2018/10/25,14:40,0.783,1.176,0.832,1.475,1.078,0.458,0.810,0.765,�k�k��,5.4,��
2018/10/25,14:50,0.784,1.177,0.832,1.472,1.079,0.459,0.810,0.765,�k��,4.5,��
2018/10/25,15:00,0.784,1.175,0.831,1.475,1.077,0.459,0.809,0.765,�k�k��,4.6,��
2018/10/25,15:10,0.783,1.178,0.831,1.478,1.079,0.458,0.809,0.763,�k�k��,4.7,��
2018/10/25,15:20,0.782,1.177,0.831,1.474,1.077,0.460,0.811,0.765,�k�k��,5.0,��
2018/10/25,15:30,0.783,1.176,0.831,1.477,1.080,0.459,0.811,0.764,�k�k��,4.4,��
2018/10/25,15:40,0.783,1.179,0.830,1.475,1.079,0.459,0.810,0.765,�k�k��,4.1,��
2018/10/25,15:50,0.783,1.178,0.831,1.476,1.079,0.461,0.811,0.764,�k,3.2,��
2018/10/25,16:00,0.783,1.182,0.829,1.475,1.076,0.461,0.811,0.766,�k,3.5,��
2018/10/25,16:10,0.781,1.178,0.830,1.473,1.077,0.461,0.812,0.766,�k,3.2,��
2018/10/25,16:20,0.782,1.183,0.831,1.472,1.078,0.463,0.812,0.767,�k,2.8,��
2018/10/25,16:30,0.780,1.182,0.830,1.473,1.077,0.460,0.812,0.768,�k,2.3,��
2018/10/25,16:40,0.781,1.186,0.829,1.475,1.078,0.461,0.811,0.768,�k,2.6,��
2018/10/25,16:50,0.784,1.182,0.831,1.473,1.077,0.462,0.811,0.767,�k�k��,1.7,��
2018/10/25,17:00,0.784,1.187,0.832,1.476,1.080,0.460,0.811,0.769,�k��,1.5,��
2018/10/25,17:10,0.783,1.184,0.833,1.476,1.082,0.462,0.810,0.767,���k��,1.5,��
2018/10/25,17:20,0.785,1.186,0.832,1.473,1.082,0.462,0.811,0.766,���k��,1.7,��
2018/10/25,17:30,0.784,1.184,0.834,1.473,1.080,0.462,0.811,0.766,��,1.7,��
2018/10/25,17:40,0.784,1.184,0.835,1.474,1.079,0.460,0.813,0.766,���k��,2.0,��
2018/10/25,17:50,0.784,1.184,0.834,1.474,1.081,0.461,0.811,0.768,���k��,2.6,��
2018/10/25,18:00,0.783,1.184,0.833,1.475,1.079,0.461,0.811,0.766,�k��,2.6,��
2018/10/25,18:10,0.786,1.184,0.834,1.476,1.077,0.461,0.811,0.768,���k��,3.2,��
2018/10/25,18:20,0.783,1.182,0.834,1.473,1.080,0.461,0.812,0.767,�k��,3.8,��
2018/10/25,18:30,0.785,1.182,0.833,1.476,1.080,0.461,0.811,0.767,���k��,4.8,��
2018/10/25,18:40,0.783,1.183,0.833,1.472,1.081,0.461,0.812,0.766,�k��,5.1,��
2018/10/25,18:50,0.782,1.183,0.832,1.477,1.079,0.460,0.810,0.768,�k��,5.3,��
2018/10/25,19:00,0.782,1.183,0.833,1.477,1.078,0.461,0.811,0.766,���k��,5.3,��
2018/10/25,19:10,0.785,1.184,0.833,1.475,1.078,0.459,0.810,0.768,���k��,6.2,��
2018/10/25,19:20,0.784,1.182,0.831,1.476,1.080,0.458,0.811,0.765,���k��,5.7,��
2018/10/25,19:30,0.783,1.184,0.832,1.476,1.080,0.460,0.811,0.766,���k��,5.6,��
2018/10/25,19:40,0.783,1.184,0.833,1.474,1.079,0.460,0.812,0.765,���k��,5.6,��
2018/10/25,19:50,0.784,1.181,0.835,1.474,1.078,0.462,0.810,0.767,���k��,5.6,��
2018/10/25,20:00,0.785,1.183,0.831,1.475,1.081,0.461,0.809,0.765,�k��,5.6,��
2018/10/25,20:10,0.783,1.182,0.834,1.476,1.081,0.460,0.812,0.766,�k��,6.0,��
2018/10/25,20:20,0.783,1.183,0.833,1.474,1.078,0.460,0.811,0.765,���k��,5.3,��
2018/10/25,20:30,0.783,1.183,0.833,1.474,1.080,0.459,0.811,0.767,���k��,5.0,��
2018/10/25,20:40,0.783,1.184,0.832,1.476,1.081,0.459,0.810,0.767,���k��,5.5,��
2018/10/25,20:50,0.783,1.184,0.833,1.473,1.079,0.460,0.809,0.765,���k��,5.6,��
2018/10/25,21:00,0.780,1.181,0.831,1.475,1.081,0.459,0.810,0.766,���k��,5.8,��
2018/10/25,21:10,0.784,1.184,0.831,1.476,1.077,0.460,0.810,0.765,���k��,5.7,��
2018/10/25,21:20,0.784,1.180,0.834,1.476,1.076,0.460,0.810,0.766,���k��,5.4,��
2018/10/25,21:30,0.781,1.179,0.834,1.474,1.079,0.460,0.810,0.765,���k��,6.0,��
2018/10/25,21:40,0.782,1.182,0.833,1.474,1.080,0.460,0.810,0.765,���k��,6.0,��
2018/10/25,21:50,0.784,1.183,0.834,1.475,1.081,0.460,0.810,0.766,���k��,5.9,��
2018/10/25,22:00,0.783,1.182,0.831,1.476,1.079,0.460,0.811,0.766,���k��,6.6,��
2018/10/25,22:10,0.781,1.183,0.832,1.475,1.079,0.460,0.811,0.766,���k��,6.2,��
2018/10/25,22:20,0.780,1.183,0.832,1.476,1.078,0.459,0.811,0.767,���k��,5.7,��
2018/10/25,22:30,0.782,1.180,0.834,1.474,1.078,0.459,0.811,0.768,���k��,5.2,��
2018/10/25,22:40,0.780,1.180,0.833,1.476,1.078,0.460,0.809,0.766,�k��,5.9,��
2018/10/25,22:50,0.782,1.179,0.835,1.473,1.077,0.459,0.811,0.767,�k��,5.7,��
2018/10/25,23:00,0.784,1.181,0.833,1.476,1.078,0.460,0.809,0.767,�k��,5.3,��
2018/10/25,23:10,0.781,1.180,0.833,1.475,1.080,0.460,0.811,0.766,�k��,5.9,��
2018/10/25,23:20,0.781,1.181,0.832,1.473,1.078,0.461,0.811,0.766,�k��,5.6,��
2018/10/25,23:30,0.782,1.184,0.832,1.476,1.076,0.458,0.810,0.766,�k��,5.1,��
2018/10/25,23:40,0.783,1.182,0.832,1.477,1.080,0.458,0.811,0.764,�k��,5.3,��
2018/10/25,23:50,0.782,1.181,0.834,1.476,1.077,0.459,0.811,0.767,�k��,5.9,��
